{"data":{"norad_id":62514,"intl_designator":"2025-004D","name":"STARLINK-11514 [DTC]","alt_names":[],"object_type":"PAYLOAD","status":"ACTIVE","operator":null,"country":"US","launch_date":"2025-01-08","launch_site_code":"AFETR","launch_vehicle":null,"mission":null,"orbit_class":"UNKNOWN","rcs_meters":null,"size_class":null,"mass_kg":null,"dimensions":null,"purposes":["comms"],"wikipedia_slug":null,"has_3d_model":false,"image_url":null,"decayed_at":null,"tle_current":{"epoch":"2026-09-21T11:43:23.609280Z","epoch_age_seconds":89061,"freshness":"FRESH","line1":"1 62514U 25004D   26264.48846770  .00187984  00000+0  14330-2 0  9992","line2":"2 62514  42.9997 330.4260 0000805 229.7179 130.3618 15.70883881 98006","mean_motion":15.70883881,"eccentricity":8.05e-5,"inclination_deg":42.9997,"raan_deg":330.426,"arg_perigee_deg":229.7179,"mean_anomaly_deg":130.3618,"bstar":0.001433,"rev_number":9800,"period_min":91.668137754607,"perigee_km":355.8275165928,"apogee_km":356.91177216254,"semimajor_km":6734.5066443777,"source":"CELESTRAK","updated_at":"2026-09-22T09:00:49.621862Z"}}}